Location: Unspecified
(0.0000°N, 0.0000°E)
Time: 21:23:45
(UTC+00:00)

Explorer 7 - Pass Details

Date: 17 June 2025
Orbit: 444 x 569 km, 50.3° (Epoch: 12 July)

Event Time Altitude Azimuth Distance (km) Brightness Sun altitude
Rises 11:59:44 0° 213° (SSW) 2,711 10.2 66.6°
Reaches altitude 10° 12:02:01 10° 210° (SSW) 1,798 9.4 66.6°
Maximum altitude 12:06:06 69° 127° (SE) 561 7.8 66.6°
Drops below altitude 10° 12:09:59 10° 43° (NE) 1,714 9.7 66.5°
Sets 12:12:07 0° 41° (NE) 2,572 10.5 66.5°
